Location: B
(0.0000°N, 0.0000°E)
Time: 19:00:16
(UTC+02:00)

Daily predictions for brighter satellites

Satellite Brightness Start Highest point End
(mag) Time Altitude Azimuth Time Altitude Azimuth Time Altitude Azimuth
ARIANE 5 R/B 4.1 19:23:33 10° WNW 19:27:50 60° NNE 20:00:24 10° E
ARIANE 5 R/B 4.1 19:23:32 10° WNW 19:27:51 60° NNE 20:00:24 10° E
ARIANE 5 R/B 4.1 19:23:33 10° WNW 19:27:51 60° NNE 20:00:24 10° E
ARIANE 3 DEB 4.4 20:08:47 10° WNW 20:12:33 42° N 20:20:49 10° ENE
Shenzhou-11 Module 3.5 20:13:27 10° N 20:15:50 21° NE 20:18:14 10° E
SMAP 4.3 20:16:48 10° S 20:21:16 47° WSW 20:25:42 10° NNW
ATLAS 5 CENTAUR R/B 2.5 20:17:30 10° S 20:21:22 28° ESE 20:25:10 10° NE
Cosmos 1707 3.9 20:19:48 10° NNE 20:22:54 23° E 20:26:00 10° SE
Lacrosse 5 2.7 20:18:55 10° N 20:23:20 30° ENE 20:27:45 10° ESE
ERS-2 4.2 20:20:08 10° SSW 20:23:29 33° WSW 20:26:49 10° NW
Cosmos 1953 Rocket 4.3 20:19:45 10° NNE 20:23:33 30° E 20:27:23 10° SSE
Cosmos 1378 4.4 20:21:59 10° NE 20:24:48 20° E 20:27:37 10° SE
SL-27 R/B 2.8 20:21:37 10° S 20:24:55 40° ESE 20:28:15 10° NNE
ARIANE 5 DEB (SYLDA) 3.1 20:26:40 10° W 20:29:37 70° N 20:35:30 13° E
Cosmos 292 Rocket 4.1 20:25:56 10° S 20:30:28 42° ESE 20:35:01 10° NNE
ARIANE 5 DEB (SYLDA) 3.5 20:31:20 10° WSW 20:33:27 30° S 20:34:59 15° ESE
ARIANE 5 DEB (SYLDA) 1.2 20:31:23 10° W 20:33:28 52° N 20:34:10 24° ENE
Gbstr 26 Del rocket 3.5 20:31:05 10° SW 20:34:59 60° NW 20:39:33 10° NNE
Cosmos 1805 3.9 20:33:07 10° SSE 20:36:39 32° E 20:40:10 10° NNE
Cosmos 1825 Rocket 3.6 20:36:18 10° N 20:40:45 89° WSW 20:45:13 10° S
Lacrosse 4 Rocket 2.6 20:38:18 10° SSE 20:41:52 24° ESE 20:43:41 19° ENE
Cosmos 1943 Rocket 2.5 20:36:41 10° N 20:41:59 43° ENE 20:47:19 10° SE
Cosmos 2154 Rocket 4.2 20:41:49 10° SSE 20:47:39 43° E 20:53:28 10° NNE
GPS 2-18 Rocket1 4.0 20:43:46 10° W 20:47:40 45° NNW 20:50:28 17° NE
NOSS 2-1 (C) 3.9 20:43:55 10° S 20:48:25 42° ESE 20:50:48 20° NE
NOSS 2-1 (D) 3.8 20:44:04 10° S 20:48:37 43° ESE 20:51:07 19° NE
Cosmos 2074 Rocket 4.2 20:42:36 10° S 20:48:50 77° W 20:55:02 10° N
ARIANE 5 DEB (SYLDA) 3.7 20:44:53 10° W 20:49:07 70° N 20:50:01 33° ENE
ATLAS 2A CENTAUR R/B 1.7 20:47:52 10° SW 20:50:24 45° SE 20:53:16 23° E
NOAA 12 4.0 20:47:18 10° SSE 20:52:30 68° ENE 20:57:41 10° N
GPS 2-05 Rocket1 3.5 20:49:39 10° SSW 20:52:56 38° SE 20:53:45 32° ESE
Ariane 42P Rocket 4.1 20:27:00 10° W 20:54:40 87° S 20:57:48 26° E
Tiangong 1 3.4 20:53:21 10° SSE 20:53:26 10° SSE 20:53:26 10° SSE
FENGYUN 3A 3.6 20:49:34 10° SSE 20:54:50 59° ENE 21:00:04 10° N
SPOT 3 Rocket 3.8 20:50:04 10° S 20:55:11 71° WSW 21:00:18 10° NNW
ALOS 2.2 20:50:35 10° SSE 20:55:13 66° ENE 20:59:50 10° N
Ariane H10-3 2.3 20:47:55 10° W 20:55:49 87° S 20:56:54 37° E
Meteor 1-24 Rocket 4.4 20:51:33 10° NNE 20:56:23 29° E 21:01:06 10° SE
Palapa 6 Rocket 3.5 20:52:26 10° SW 20:57:09 46° SSE 20:58:41 32° ESE
Cosmos 1340 Rocket 3.2 20:55:29 10° NNW 20:59:31 66° W 21:03:34 10° S
Cosmos 2341 Rocket 4.4 20:55:16 10° SSE 21:00:58 38° E 21:06:35 10° NNE
Cosmos 2181 Rocket 4.0 20:54:57 10° N 21:01:03 84° W 21:07:12 10° S
Ariane 5 R/B 3.5 20:59:54 10° WNW 21:04:51 63° N 21:06:29 35° ENE
NOSS 2-1 (E) 3.3 21:09:41 10° SSW 21:14:18 86° ESE 21:15:30 44° NNE
Cosmos 1953 2.2 21:10:24 10° S 21:14:11 61° ESE 21:14:11 61° ESE
Cosmos 1898 Rocket 4.1 21:11:35 10° NNW 21:16:38 58° WSW 21:21:44 10° S
Cosmos 990 Rocket 3.8 21:11:55 10° N 21:17:02 77° ENE 21:22:10 10° SSE
NOSS 3-3 (A) 4.0 21:12:49 10° SSW 21:18:46 72° WNW 21:24:43 10° NNE
NOSS 3-3 (C) 4.0 21:12:55 10° SSW 21:18:52 73° WNW 21:24:50 10° NNE
SEDSat Delta rocket 4.5 21:14:25 10° WSW 21:19:51 47° NNW 21:23:15 24° NNE
Ariane H10-3 4.2 21:16:17 10° W 21:20:01 88° N 21:25:08 33° E
USA 215 3.8 21:20:06 35° ESE 21:20:37 35° SE 21:26:28 10° S
Atlas 2A Centaur Rocket 3.9 20:39:02 10° WSW 21:21:01 70° SSE 21:24:06 39° E
USA 229 DEB 3.7 21:19:18 10° NNW 21:26:36 69° ENE 21:30:56 27° SE
USA 229 3.7 21:19:24 10° NNW 21:26:41 68° ENE 21:30:51 28° SE
Cosmos 2285 Rocket 4.0 21:22:17 10° SSW 21:28:40 82° WNW 21:35:05 10° N
FengYun 1-2 T 4.1 21:23:20 10° SSE 21:29:00 77° ENE 21:34:36 10° N
Tiangong 2 3.1 21:26:03 10° NW 21:27:30 25° NW 21:27:30 25° NW
Cosmos 1833 Rocket 2.6 21:27:13 10° SSW 21:32:52 90° ESE 21:35:08 38° NNE
Cosmos 2369 Rocket 4.5 21:30:48 10° NW 21:35:07 23° WSW 21:39:27 10° SSW
Cosmos 1295 Rocket 4.3 21:32:28 10° S 21:38:40 80° E 21:44:46 10° N
Centaur D AC-28 3.7 21:40:51 10° WNW 21:43:35 20° NNW 21:43:58 20° N
Cosmos 1356 Rocket 4.4 21:41:11 10° NNW 21:44:43 44° WNW 21:44:43 44° WNW
OAO 2 Rocket 4.3 21:41:12 10° NW 21:44:44 38° NNW 21:44:44 38° NNW
Cosmos 909 Rocket 4.0 21:42:17 10° NNW 21:49:00 83° WSW 21:50:15 60° S
Cosmos 2082 Rocket 3.0 21:50:57 10° SSW 21:56:20 48° WNW 21:58:19 34° NNW
Atlas Centaur 2 4.0 21:53:58 10° SSW 21:59:09 30° S 21:59:09 30° S
Ariane 44LP R/B 3.8 21:46:22 10° W 22:03:54 69° SW 22:03:54 69° SW
Lacrosse 5 4.3 22:02:35 10° WNW 22:06:04 19° WSW 22:08:25 14° SSW
USA 234 3.7 22:13:01 51° NW 22:13:01 51° NW 22:17:43 10° NW
Lacrosse 4 Rocket 4.4 22:17:51 10° WSW 22:20:10 15° WNW 22:20:10 15° WNW
VEP-3 4.2 22:46:53 10° WNW 22:55:38 42° WSW 22:55:38 42° WSW
